This is the latest recevied weather packets stored in our database for station/object EA5JUX. If no packets are shown the sender has not sent any weather packets the latest 10 day(s).
| Time | Temp. | Humidity | Pressure | Rain* | Wind** | Luminosity | Snow |
|---|---|---|---|---|---|---|---|
| 1787589115 | 28.33° C | 67% | 1009.9 hPa | 0 mm | - | - | - |
| 1787588802 | 28.33° C | 67% | 1009.9 hPa | 0 mm | - | - | - |
| 1787588503 | 28.33° C | 66% | 1009.7 hPa | 0 mm | - | - | - |
| 1787588202 | 28.33° C | 67% | 1010 hPa | 0 mm | - | - | - |
| 1787587903 | 28.33° C | 66% | 1010.1 hPa | 0 mm | - | - | - |
| 1787587621 | 28.89° C | 62% | 1010.1 hPa | 0 mm | - | - | - |
| 1787587302 | 28.33° C | 65% | 1010.5 hPa | 0 mm | - | - | - |
| 1787587015 | 28.33° C | 66% | 1010.4 hPa | 0 mm | - | - | - |
| 1787586702 | 28.33° C | 66% | 1010.7 hPa | 0 mm | - | - | - |
| 1787586418 | 28.33° C | 68% | 1010.5 hPa | 0 mm | - | - | - |
| 1787586111 | 28.33° C | 68% | 1010.6 hPa | 0 mm | - | - | - |
| 1787585803 | 28.33° C | 69% | 1010.5 hPa | 0 mm | - | - | - |
| 1787585502 | 28.89° C | 67% | 1010.7 hPa | 0 mm | - | - | - |
| 1787585202 | 28.33° C | 67% | 1010.8 hPa | 0 mm | - | - | - |
| 1787584902 | 28.89° C | 68% | 1011 hPa | 0 mm | - | - | - |
| 1787584603 | 28.89° C | 67% | 1011 hPa | 0 mm | - | - | - |
| 1787584302 | 29.44° C | 65% | 1011.1 hPa | 0 mm | - | - | - |
| 1787584011 | 28.89° C | 67% | 1011 hPa | 0 mm | - | - | - |
| 1787583722 | 28.33° C | 68% | 1011 hPa | 0 mm | - | - | - |
| 1787583402 | 28.89° C | 73% | 1010.9 hPa | 0 mm | - | - | - |
| 1787583113 | 28.33° C | 74% | 1010.9 hPa | 0 mm | - | - | - |
| 1787582803 | 28.33° C | 74% | 1011.1 hPa | 0 mm | - | - | - |
| 1787582502 | 28.89° C | 74% | 1011.1 hPa | 0 mm | - | - | - |
| 1787582217 | 28.89° C | 75% | 1011.1 hPa | 0 mm | - | - | - |
| 1787581902 | 28.33° C | 75% | 1011.2 hPa | 0 mm | - | - | - |
* Rain latest hour (hover to see other rain measurements)
** Current wind speed in m/s (hover to see current wind gust speed)